Vertical_Velocity
-0 -1 -2 -0 -4 -0 2 -2 1 0 1 -1 0 -1 -3 -2 3 0 -1 -3 -2 -3 -1 -6 1 -14 -0 -5 1 -5 -15 -17 -13 -9 -6 14 -3 6 -7 -4 -6 -2 1 -6 -2
-0 -1 -0 -5 2 -2 1 -0 0 -1 -0 -0 4 1 -1 -3 2 2 2 -0 -2 -1 1 -0 3 -5 0 1 -6 -14 11 -3 -13 7 -12 35 -1 -2 6 5 1 5 -5 -6 -1
-1 0 -3 2 -2 -3 1 1 -1 0 -1 -1 3 1 -1 -2 3 -2 6 -2 0 -2 2 -2 1 4 -0 -5 2 -7 -8 -5 13 6 2 4 9 6 -3 -1 -1 -1 -3 -4 -2
-1 -2 -1 -1 0 -0 -2 0 2 -2 -0 0 2 2 -1 -3 -2 -1 3 -4 -3 -2 4 3 5 4 -5 1 -4 17 16 1 1 31 33 -7 2 0 -6 4 3 3 -7 -2 2
-3 -1 -1 -0 0 -0 -2 -1 -0 -1 1 -0 -1 0 1 -5 -1 -3 0 1 -3 -4 1 5 0 -6 1 1 1 8 2 5 6 -5 10 7 4 3 -1 -5 2 -0 -4 1 4
-3 -2 1 -1 -1 -0 -0 -2 -1 -1 -0 -1 -0 -0 -3 -0 -1 -3 3 -3 -1 -1 -2 -10 -5 -5 -1 3 6 14 2 -9 4 20 -3 -0 -2 -5 -8 -1 -4 -3 -4 -4 -1
-1 -2 -3 -2 -2 -0 -1 -2 1 -0 -2 -0 -1 0 -2 -3 3 -4 -1 -0 1 -1 -4 2 1 -7 -6 7 5 2 -7 -1 -20 -10 -7 19 -3 -2 2 -1 -3 -3 1 -5 -7
-3 -2 -2 -1 -0 -1 -0 -1 -2 -3 -1 -1 -1 0 2 -2 1 1 -2 0 5 2 -0 6 -6 -5 -3 -4 -2 -9 -2 -1 -0 7 -9 11 -4 -7 -5 -5 -2 -1 -4 -2 -4
-2 -2 -1 -1 0 -2 -3 0 -0 -1 -2 -3 -1 -1 -2 5 -0 -1 -1 2 -0 -3 -3 0 -5 -4 -1 1 -5 -7 -7 -0 -8 19 -2 1 2 19 -3 -3 0 -0 -4 -1 -3
1 -0 -2 -2 -1 -0 -1 -2 -1 -3 -3 -1 -3 -3 -0 -4 4 -2 0 -3 2 -2 -1 -0 -3 -1 -5 -1 1 -7 7 1 7 -7 3 -1 3 -4 5 -4 3 -4 -1 -1 2
-0 -2 -3 -2 -3 -1 -2 -2 -2 -3 -1 -2 -4 -3 -3 -7 0 1 4 -1 -2 -1 -2 5 -6 -7 9 3 -1 -4 9 -0 8 6 6 -9 -4 20 4 8 5 -2 -2 -3 3
-3 -2 -1 -1 -2 0 -0 0 2 -7 -4 -2 1 -1 -4 -3 -10 -1 1 0 -2 -1 4 2 -11 5 3 1 3 12 -3 -6 9 3 9 15 -1 1 29 -4 -2 2 1 -2 3
-3 -1 -2 -1 -1 4 1 -6 -4 -3 -5 7 1 -2 2 -3 -3 -2 -5 4 0 -3 2 0 3 1 5 9 -1 2 -2 -6 5 2 9 9 -10 -3 14 7 7 11 9 3 -1
-2 -3 -0 -2 3 -0 -4 -4 -2 -1 -5 -10 -9 -13 -10 -2 -17 5 -1 2 -5 -2 2 -3 6 -0 6 5 0 -10 12 6 5 -2 -5 1 -10 -10 2 3 15 2 7 -3 2
-1 -1 0 0 2 -3 -2 2 -1 -3 -2 4 5 7 8 -17 11 -3 4 -1 -1 -3 5 -9 -5 12 7 -8 5 2 0 1 -0 -1 -7 2 -0 4 -4 0 -5 8 12 -1 11
-3 -0 -1 1 -1 -5 0 5 -0 3 -13 8 3 -7 -0 -1 1 4 -1 3 6 7 10 -7 2 5 -7 -1 -0 9 6 -8 -3 -2 -4 1 4 -3 5 -5 -8 1 2 -5 -1
-2 1 -1 -0 -1 -1 5 4 2 -3 2 5 -1 -9 -3 -3 -1 7 -2 -6 -8 1 -3 2 -6 -3 7 -2 -1 2 -1 -6 -7 -3 -8 1 2 -1 -5 4 -0 25 9 35 11
-0 -1 2 2 -0 1 4 2 -1 -2 -3 8 3 11 -1 2 -3 1 2 4 3 1 -3 -1 -13 -9 -4 -3 -2 -0 3 -6 -3 -2 -5 1 0 -5 -6 -2 25 12 8 -90 10
-1 1 1 -0 1 4 0 2 -15 1 12 -0 -6 1 -4 6 -1 13 3 -0 0 -7 -6 1 -15 2 3 12 1 -2 -4 5 6 3 1 -0 2 -1 -4 -5 8 -5 -14 -40 -11
0 0 -1 3 1 -0 0 -9 -18 5 -3 5 -1 6 10 -1 8 7 7 -16 -7 -7 -1 -9 -13 6 -6 12 11 3 7 -2 1 -4 -1 -2 2 -4 13 10 -5 -5 -2 6 -8
0 2 4 -3 3 -1 -6 -13 -1 8 5 -4 -2 1 6 8 -0 0 -8 -0 -1 -0 -1 8 8 -17 -3 11 -11 5 4 -1 1 1 -5 -2 -9 -7 12 11 5 13 14 11 -18
-3 2 5 2 3 1 -4 0 7 -1 9 -0 -3 -2 8 4 0 -6 -13 14 4 7 -14 -5 0 -6 -0 -3 23 7 6 10 8 -2 2 1 -7 0 2 -5 -3 -14 -14 -20 -32
-1 0 0 1 0 0 4 0 -4 -3 13 7 0 9 4 5 -2 1 9 8 3 -6 -12 -2 -11 1 5 -4 -10 2 11 7 6 5 1 1 -8 0 -7 -4 3 2 7 0 4
4 6 7 1 3 0 1 -4 1 1 -9 4 -5 5 2 3 -2 -2 5 6 16 11 4 16 -3 -5 -13 -3 -1 -1 1 6 6 3 -0 -3 -1 4 5 3 -10 -5 -2 -39 -90
3 -3 -3 -1 6 2 4 1 0 0 -4 5 4 3 3 -3 4 -4 0 6 6 1 3 10 -2 5 -2 -2 -1 -0 -4 -4 -0 6 5 -21 3 2 5 3 1 11 -14 -8 -4
-0 -3 -1 6 7 4 1 -1 2 6 -0 -0 -4 16 -0 -1 -3 -8 -0 -0 -3 1 -5 0 1 2 2 3 1 -3 -8 8 4 -1 -4 -8 -6 12 19 -11 -4 -6 -8 -16 -19
2 -3 2 5 10 0 12 4 1 0 15 -2 -6 17 -1 0 3 -2 -6 2 -2 -0 -3 -8 -3 -3 -10 -1 -1 -11 8 4 5 -5 -5 -6 10 16 4 24 37 16 26 16 8
Height
3184 3184 3185 3186 3186 3185 3185 3185 3185 3185 3185 3185 3185 3185 3187 3187 3189 3191 3192 3194 3195 3196 3198 3201 3203 3204 3204 3205 3205 3204 3200 3201 3201 3201 3202 3202 3201 3202 3200 3200 3200 3200 3200 3199 3198
3183 3184 3184 3186 3186 3186 3186 3186 3185 3185 3185 3185 3186 3186 3187 3188 3189 3190 3192 3192 3194 3195 3197 3200 3203 3204 3206 3204 3203 3204 3203 3202 3203 3202 3204 3203 3202 3201 3200 3202 3202 3202 3200 3199 3200
3183 3184 3185 3185 3185 3186 3186 3186 3186 3185 3185 3185 3186 3186 3188 3189 3190 3191 3191 3192 3193 3194 3196 3198 3202 3204 3205 3205 3204 3203 3203 3201 3202 3203 3203 3203 3203 3202 3201 3202 3203 3202 3201 3199 3198
3182 3183 3184 3185 3185 3186 3185 3185 3186 3185 3185 3185 3186 3186 3187 3188 3192 3191 3190 3192 3192 3194 3196 3197 3199 3201 3203 3203 3203 3204 3206 3205 3204 3204 3204 3203 3203 3203 3202 3203 3201 3201 3201 3200 3199
3181 3182 3183 3184 3184 3184 3185 3185 3185 3185 3185 3184 3185 3185 3187 3189 3191 3191 3191 3192 3193 3194 3195 3196 3196 3197 3199 3201 3200 3204 3204 3204 3204 3204 3205 3204 3202 3202 3201 3201 3201 3201 3201 3201 3201
3179 3180 3181 3182 3183 3183 3183 3184 3184 3184 3184 3183 3184 3184 3186 3188 3189 3190 3191 3192 3193 3194 3196 3196 3196 3197 3198 3200 3202 3203 3203 3203 3203 3203 3203 3203 3201 3200 3200 3200 3201 3201 3201 3201 3201
3176 3178 3179 3180 3181 3181 3182 3183 3183 3183 3183 3183 3183 3183 3185 3186 3187 3189 3190 3192 3194 3195 3195 3197 3197 3198 3199 3200 3200 3199 3201 3202 3203 3201 3202 3202 3200 3198 3197 3198 3199 3199 3198 3198 3199
3173 3175 3176 3177 3178 3179 3180 3180 3181 3181 3181 3182 3182 3183 3183 3184 3185 3186 3188 3191 3193 3194 3195 3196 3197 3197 3199 3200 3200 3200 3200 3200 3199 3198 3200 3201 3199 3196 3196 3196 3197 3196 3196 3196 3195
3170 3171 3172 3173 3175 3176 3177 3178 3179 3178 3180 3180 3181 3182 3183 3183 3183 3184 3187 3189 3190 3192 3194 3195 3195 3197 3199 3200 3200 3201 3199 3198 3196 3196 3197 3199 3198 3196 3195 3195 3196 3195 3194 3193 3194
3166 3167 3169 3170 3171 3173 3174 3175 3175 3176 3178 3178 3179 3182 3181 3181 3182 3183 3185 3186 3188 3189 3192 3194 3195 3196 3197 3198 3199 3200 3198 3195 3192 3196 3196 3197 3197 3196 3194 3194 3194 3194 3192 3193 3194
3162 3164 3165 3166 3168 3170 3171 3173 3176 3176 3175 3176 3177 3178 3179 3179 3181 3182 3183 3184 3186 3188 3190 3192 3192 3193 3196 3198 3198 3198 3197 3196 3193 3192 3194 3195 3195 3194 3194 3194 3194 3192 3192 3193 3194
3158 3160 3162 3164 3165 3167 3167 3169 3171 3171 3172 3173 3174 3176 3177 3178 3178 3181 3182 3184 3185 3187 3188 3190 3189 3192 3194 3195 3196 3196 3196 3195 3193 3192 3195 3194 3193 3192 3192 3191 3191 3190 3191 3192 3193
3154 3156 3158 3161 3162 3164 3164 3166 3167 3167 3168 3171 3171 3172 3176 3177 3177 3179 3181 3182 3183 3185 3186 3187 3189 3190 3192 3193 3195 3195 3195 3193 3192 3192 3193 3192 3190 3189 3189 3187 3188 3190 3190 3190 3193
3149 3151 3154 3157 3161 3159 3161 3163 3164 3165 3167 3166 3166 3169 3172 3174 3174 3177 3178 3182 3183 3184 3186 3186 3187 3188 3190 3191 3192 3193 3193 3192 3190 3190 3190 3190 3189 3185 3182 3182 3184 3187 3188 3190 3192
3144 3146 3149 3152 3154 3156 3160 3161 3163 3166 3167 3164 3161 3165 3168 3171 3174 3172 3176 3178 3181 3182 3185 3184 3185 3188 3189 3189 3190 3191 3190 3189 3189 3188 3189 3188 3189 3183 3180 3182 3186 3189 3191 3190 3191
3140 3141 3144 3147 3149 3154 3156 3159 3162 3166 3161 3159 3159 3160 3164 3167 3171 3172 3175 3178 3181 3181 3183 3181 3182 3185 3185 3187 3189 3189 3188 3188 3188 3188 3189 3185 3187 3184 3183 3183 3185 3187 3188 3192 3194
3135 3137 3140 3143 3147 3150 3153 3157 3162 3159 3159 3159 3159 3160 3162 3165 3167 3170 3172 3175 3178 3180 3180 3180 3180 3182 3183 3185 3187 3187 3187 3188 3190 3189 3189 3185 3184 3183 3183 3183 3184 3185 3188 3195 3192
3131 3133 3136 3140 3141 3145 3149 3155 3156 3154 3156 3157 3159 3160 3159 3161 3163 3167 3169 3172 3175 3178 3179 3179 3180 3179 3181 3184 3186 3186 3186 3188 3191 3192 3187 3185 3182 3180 3178 3180 3184 3187 3185 3183 3178
3128 3130 3133 3135 3137 3142 3146 3149 3150 3152 3155 3154 3154 3156 3157 3160 3162 3164 3167 3170 3173 3175 3178 3177 3176 3177 3179 3181 3184 3184 3185 3187 3186 3186 3186 3184 3184 3183 3181 3183 3186 3190 3188 3177 3171
3124 3126 3129 3132 3134 3138 3143 3144 3146 3149 3151 3152 3153 3154 3152 3155 3160 3161 3163 3165 3169 3171 3174 3176 3178 3175 3172 3175 3181 3182 3184 3185 3184 3187 3187 3184 3182 3182 3183 3183 3183 3181 3186 3185 3185
3121 3124 3127 3128 3132 3135 3137 3140 3142 3145 3149 3150 3150 3152 3153 3152 3155 3157 3159 3163 3164 3167 3171 3173 3177 3173 3176 3176 3178 3181 3180 3182 3183 3183 3183 3186 3183 3181 3183 3183 3183 3184 3185 3184 3184
3120 3123 3126 3127 3132 3131 3133 3136 3137 3141 3147 3149 3149 3150 3151 3150 3150 3152 3154 3158 3161 3163 3166 3169 3172 3172 3175 3176 3176 3177 3178 3179 3180 3181 3180 3180 3179 3178 3179 3179 3181 3181 3181 3179 3180
3120 3121 3122 3125 3128 3129 3131 3132 3134 3138 3142 3146 3145 3147 3148 3147 3148 3149 3151 3152 3157 3158 3161 3165 3168 3171 3171 3175 3176 3176 3177 3177 3177 3177 3175 3177 3175 3174 3176 3176 3177 3177 3175 3169 3175
3120 3122 3123 3124 3126 3127 3128 3130 3134 3136 3138 3142 3142 3145 3146 3145 3146 3148 3150 3151 3153 3154 3157 3161 3163 3165 3169 3172 3174 3174 3174 3173 3174 3174 3172 3171 3169 3169 3171 3174 3175 3175 3173 3174 3172
3115 3118 3120 3122 3125 3124 3127 3130 3131 3133 3136 3138 3141 3144 3143 3143 3145 3146 3148 3149 3149 3151 3154 3158 3159 3162 3165 3167 3170 3171 3171 3171 3171 3171 3169 3168 3165 3166 3168 3169 3169 3168 3169 3169 3172
3117 3119 3120 3122 3121 3121 3123 3127 3130 3132 3133 3135 3136 3141 3140 3141 3143 3145 3147 3147 3147 3151 3152 3155 3157 3159 3162 3165 3166 3167 3170 3170 3169 3168 3166 3165 3164 3164 3168 3168 3167 3166 3164 3162 3162
3115 3117 3119 3120 3120 3121 3120 3124 3127 3129 3131 3129 3132 3134 3137 3140 3143 3145 3146 3146 3147 3150 3151 3155 3157 3159 3161 3163 3164 3166 3168 3168 3165 3165 3165 3164 3164 3163 3168 3170 3169 3168 3168 3165 3165